This is the latest recevied weather packets stored in our database for station/object NA9VY-8. If no packets are shown the sender has not sent any weather packets the latest 10 day(s).
| Time | Temp. | Humidity | Pressure | Rain* | Wind** | Luminosity | Snow |
|---|---|---|---|---|---|---|---|
| 1777928626 | 24.44° C | 46% | 1009.1 hPa | 0 mm | - | 203 W/m² | - |
| 1777928323 | 24.44° C | 49% | 1009.1 hPa | 0 mm | - | 184 W/m² | - |
| 1777928021 | 25° C | 46% | 1009 hPa | 0 mm | - | 175 W/m² | - |
| 1777927719 | 25° C | 45% | 1009 hPa | 0 mm | - | 218 W/m² | - |
| 1777927417 | 25° C | 45% | 1009.1 hPa | 0 mm | - | 239 W/m² | - |
| 1777927116 | 25° C | 45% | 1009.2 hPa | 0 mm | - | 245 W/m² | - |
| 1777926813 | 25.56° C | 44% | 1008.9 hPa | 0 mm | - | 258 W/m² | - |
| 1777926508 | 26.11° C | 44% | 1009 hPa | 0 mm | - | 343 W/m² | - |
| 1777926206 | 26.11° C | 44% | 1009.1 hPa | 0 mm | - | 494 W/m² | - |
| 1777925902 | 26.11° C | 43% | 1009.1 hPa | 0 mm | - | 579 W/m² | - |
| 1777925600 | 26.11° C | 45% | 1008.9 hPa | 0 mm | - | 201 W/m² | - |
| 1777925297 | 26.11° C | 46% | 1008.9 hPa | 0 mm | - | 409 W/m² | - |
| 1777924993 | 25.56° C | 46% | 1009.1 hPa | 0 mm | - | 533 W/m² | - |
| 1777924689 | 25.56° C | 50% | 1009.3 hPa | 0 mm | - | 218 W/m² | - |
| 1777924385 | 25.56° C | 49% | 1009.2 hPa | 0 mm | - | 186 W/m² | - |
| 1777924082 | 25.56° C | 50% | 1009.1 hPa | 0 mm | - | 648 W/m² | - |
| 1777923779 | 25° C | 50% | 1009.3 hPa | 0 mm | - | 713 W/m² | - |
| 1777923475 | 25° C | 52% | 1009.2 hPa | 0 mm | - | 648 W/m² | - |
| 1777923172 | 25.56° C | 53% | 1009.3 hPa | 0 mm | - | 630 W/m² | - |
| 1777922871 | 25.56° C | 51% | 1009.5 hPa | 0 mm | - | 547 W/m² | - |
| 1777922569 | 25.56° C | 52% | 1009.7 hPa | 0 mm | - | 630 W/m² | - |
| 1777922267 | 25° C | 53% | 1009.7 hPa | 0 mm | - | 98 W/m² | - |
| 1777921963 | 25° C | 53% | 1009.7 hPa | 0 mm | - | 486 W/m² | - |
| 1777921659 | 25° C | 50% | 1009.9 hPa | 0 mm | - | 301 W/m² | - |
| 1777921356 | 25° C | 54% | 1010 hPa | 0 mm | - | 664 W/m² | - |
* Rain latest hour (hover to see other rain measurements)
** Current wind speed in m/s (hover to see current wind gust speed)